TIANQI 28 (59912 NORAD) Tracking and Keplerian Element Data

This shows tracking and keplerian element data for the satellite.

Feedback or suggestion? Click here.




ElementValue
Catalog59912
NameTIANQI 28
Epoch Orbit139
Epoch Day160.21826609
Epoch Year2024
RAAN310.9638
Inclination44.9793
Eccentricity0.0012623
Argument of Perigee353.4599
Mean Anonmoly59.4595
Mean Motion14.14521645
Decay Rate3.171E-05
L11 59912U 24102D 24160.21826609 .00003171 00000+0 17077-2 0 9997
L22 59912 44.9793 310.9638 0012623 353.4599 59.4595 14.14521645 1399



Live tracking and technical data element details for TIANQI 28 (NORAD 59912). TIANQI 28 can be tracked NOW for your location showing map with azimuth and elevation plus other details from your city location.







IsCatalogInMostPopularTable: catalog: 59912, numindb: 8
Update: records affected: 1



GetName: 59912 TIANQI 28

Hit Count: updated at: Tue, 16 Jul 2024 02:33:41 GMT